Location: Newark
(45.9000°N, 9.5667°E)
Time: 15:26:22
(UTC+00:00)

ISS - Visible Passes

Search period start: 21 August 2019 00:00
Search period end: 31 August 2019 00:00
Orbit: 410 x 421 km, 51.6° (Epoch: 22 August)

Date Brightness Start Highest point End Pass type
(mag) Time Alt. Az. Time Alt. Az. Time Alt. Az.
28 Aug -1.9 03:36:10 10° SSW 03:38:55 24° SE 03:41:40 10° E visible
29 Aug -1.4 02:49:12 13° SSE 02:50:17 15° SE 02:52:17 10° E visible
30 Aug -3.4 03:35:23 17° SW 03:37:48 57° SSE 03:41:06 10° ENE visible
